EA8CHC Sevilla ES current weather conditions

sailwx.info

Wind from 081 at 4 knots gusting 10

Air temperature 30.6° C
Dewpoint 10.0° C

Last reported at 2016-Sep-30 14:52 UTC.
Time now 2016-Sep-30 15:12 UTC

Location: N 37°26' W 006°03'.
View on Google Maps.

See reports from other nearby stations

  
Tides and Currents Weather Stations Pressure Air Temp Water Temp Dewpoint Dewpoint Depression Visibility Wind Speed Wind Dir Waves Ship Positions
date/time (UTC)wind fromknots sea level pressurealtimeterstation pressurevisibilityair tempwater tempwave heightnotes
2016-Sep-30 14:52 081 4 gusting 10 30.6
2016-Sep-30 14:47 101 4 gusting 10 30.6
2016-Sep-30 14:42 069 5 gusting 11 30.6
2016-Sep-30 14:37 120 5 gusting 11 30.6
2016-Sep-30 14:32 091 5 gusting 11 30.6
2016-Sep-30 14:27 096 5 gusting 11 30.6
2016-Sep-30 14:22 049 3 gusting 7 30.0
2016-Sep-30 14:17 101 3 gusting 7 30.0
2016-Sep-30 14:12 109 3 gusting 15 30.0
2016-Sep-30 14:07 067 3 gusting 15 30.0
2016-Sep-30 14:02 075 4 gusting 15 30.0
2016-Sep-30 13:57 100 6 gusting 15 30.0
2016-Sep-30 13:52 064 6 gusting 9 30.0
2016-Sep-30 13:47 099 2 gusting 9 30.0
2016-Sep-30 13:42 070 3 gusting 13 30.0
2016-Sep-30 13:37 109 6 gusting 13 30.0
2016-Sep-30 13:32 164 6 gusting 14 29.4
2016-Sep-30 13:27 109 6 gusting 14 29.4
2016-Sep-30 13:22 028 5 gusting 10 29.4
2016-Sep-30 13:17 080 3 gusting 10 29.4
2016-Sep-30 13:12 093 5 gusting 10 29.4
2016-Sep-30 13:07 077 5 gusting 10 29.4
2016-Sep-30 13:02 098 4 gusting 7 29.4
2016-Sep-30 12:57 092 3 gusting 7 29.4
2016-Sep-30 12:52 092 3 gusting 13 29.4
2016-Sep-30 12:47 086 4 gusting 13 29.4
2016-Sep-30 12:42 101 6 gusting 13 29.4
2016-Sep-30 12:37 106 5 gusting 13 29.4
2016-Sep-30 12:32 107 5 gusting 11 28.9
2016-Sep-30 12:27 084 5 gusting 11 28.9
2016-Sep-30 12:22 086 5 gusting 13 28.9
2016-Sep-30 12:17 074 5 gusting 13 28.9
2016-Sep-30 12:12 072 6 gusting 12 28.9
2016-Sep-30 12:07 090 5 gusting 12 28.9
2016-Sep-30 12:02 076 3 gusting 9 28.3
2016-Sep-30 11:57 053 3 gusting 9 28.3
2016-Sep-30 11:52 052 5 gusting 10 28.3
2016-Sep-30 11:47 049 4 gusting 10 28.3
2016-Sep-30 11:42 052 4 gusting 11 27.8
2016-Sep-30 11:37 081 4 gusting 11 27.8
2016-Sep-30 11:32 068 5 gusting 13 27.8
2016-Sep-30 11:27 110 6 gusting 13 27.2
2016-Sep-30 11:22 047 6 gusting 11 27.2
2016-Sep-30 11:17 052 5 gusting 11 27.2
2016-Sep-30 11:12 071 4 gusting 11 27.2
2016-Sep-30 11:07 061 5 gusting 11 27.2
2016-Sep-30 11:02 071 5 gusting 11 26.7
2016-Sep-30 10:57 069 5 gusting 11 26.7
2016-Sep-30 10:52 026 6 gusting 11 26.7
2016-Sep-30 10:47 069 5 gusting 11 26.7
2016-Sep-30 10:42 066 5 gusting 11 26.7
2016-Sep-30 10:37 064 6 gusting 11 26.1
2016-Sep-30 10:32 052 5 gusting 11 26.1
2016-Sep-30 10:27 055 4 gusting 11 26.1
2016-Sep-30 10:22 038 3 gusting 8 26.1
2016-Sep-30 10:17 064 3 gusting 8 25.6
2016-Sep-30 10:12 080 3 gusting 7 25.6
2016-Sep-30 10:07 067 3 gusting 7 25.0
2016-Sep-30 10:02 067 3 gusting 7 25.0
2016-Sep-30 09:57 069 4 gusting 7 25.0
2016-Sep-30 09:52 086 4 gusting 9 24.4
2016-Sep-30 09:47 074 4 gusting 9 24.4
2016-Sep-30 09:42 070 4 gusting 6 24.4
2016-Sep-30 09:37 091 3 gusting 6 23.9
2016-Sep-30 09:32 046 3 gusting 6 23.9
2016-Sep-30 09:27 045 3 gusting 6 23.3
2016-Sep-30 09:22 060 3 gusting 6 23.3
2016-Sep-30 09:17 055 4 gusting 6 23.3
2016-Sep-30 09:12 064 4 gusting 10 23.3
2016-Sep-30 09:07 048 4 gusting 10 22.8
2016-Sep-30 09:02 062 4 gusting 10 22.8
2016-Sep-30 08:57 070 4 gusting 10 22.8
2016-Sep-30 08:52 059 4 gusting 9 22.8
2016-Sep-30 08:47 080 5 gusting 9 22.2
2016-Sep-30 08:42 074 4 gusting 9 22.2
2016-Sep-30 08:37 049 3 gusting 9 22.2
2016-Sep-30 08:32 090 4 gusting 9 22.2
2016-Sep-30 08:27 068 5 gusting 9 21.7
2016-Sep-30 08:22 031 4 gusting 6 21.7
2016-Sep-30 08:17 063 1 gusting 6 21.7
2016-Sep-30 08:12 117 0 gusting 5 21.7
2016-Sep-30 08:07 117 1 gusting 5 21.1
2016-Sep-30 08:02 117 2 gusting 5 20.6
2016-Sep-30 07:57 100 2 gusting 5 20.6
2016-Sep-30 07:52 094 1 gusting 4 20.6
2016-Sep-30 07:47 094 0 gusting 4 20.6
2016-Sep-30 07:42 059 20.0
2016-Sep-30 07:37 059 0 gusting 3 20.0
2016-Sep-30 07:32 059 0 gusting 3 19.4
2016-Sep-30 07:27 059 1 gusting 3 19.4
2016-Sep-30 07:22 059 1 gusting 3 19.4
2016-Sep-30 07:17 040 0 gusting 3 19.4
2016-Sep-30 07:12 031 0 gusting 3 19.4
2016-Sep-30 07:07 023 19.4
2016-Sep-30 07:02 030 18.9
2016-Sep-30 06:57 030 0 gusting 3 18.9
2016-Sep-30 06:52 030 18.9
2016-Sep-30 06:47 030 18.9
2016-Sep-30 06:42 030 18.3
2016-Sep-30 06:37 030 18.3
2016-Sep-30 06:32 031 18.3
2016-Sep-30 06:27 031 0 gusting 2 18.3
2016-Sep-30 06:22 328 0 gusting 2 18.3
2016-Sep-30 06:17 311 18.3
2016-Sep-30 06:12 311 17.8
2016-Sep-30 06:07 311 17.8
2016-Sep-30 06:02 311 0 gusting 3 17.8
2016-Sep-30 05:57 311 0 gusting 3 17.8
2016-Sep-30 05:52 311 17.8
2016-Sep-30 05:47 311 17.8
2016-Sep-30 05:42 311 0 gusting 4 17.8
2016-Sep-30 05:37 311 1 gusting 4 17.8
2016-Sep-30 05:32 311 1 gusting 3 17.8
2016-Sep-30 05:27 311 0 gusting 3 18.3
2016-Sep-30 05:22 344 1 gusting 3 18.3
2016-Sep-30 05:17 344 0 gusting 3 18.9
2016-Sep-30 05:12 021 0 gusting 3 18.9
2016-Sep-30 05:07 021 1 gusting 3 18.9
2016-Sep-30 05:02 009 0 gusting 1 18.9
2016-Sep-30 04:57 009 19.4
2016-Sep-30 04:52 009 19.4
2016-Sep-30 04:47 009 19.4
2016-Sep-30 04:42 009 19.4
2016-Sep-30 04:37 009 19.4
2016-Sep-30 04:32 009 19.4
2016-Sep-30 04:27 009 19.4
2016-Sep-30 04:22 009 19.4
2016-Sep-30 04:17 300 19.4
2016-Sep-30 04:12 300 19.4
2016-Sep-30 04:07 300 19.4
2016-Sep-30 04:02 300 19.4
2016-Sep-30 03:57 300 19.4
2016-Sep-30 03:52 300 19.4
2016-Sep-30 03:47 300 19.4
2016-Sep-30 03:42 300 19.4
2016-Sep-30 03:37 299 19.4
2016-Sep-30 03:32 300 19.4
2016-Sep-30 03:27 300 19.4
2016-Sep-30 03:22 300 0 gusting 3 19.4
2016-Sep-30 03:17 300 1 gusting 3 19.4
2016-Sep-30 03:12 300 1 gusting 4 19.4
2016-Sep-30 03:07 300 0 gusting 4 19.4
2016-Sep-30 03:02 300 1 gusting 3 19.4
2016-Sep-30 02:57 299 0 gusting 3 20.0
2016-Sep-30 02:52 118 20.0
2016-Sep-30 02:47 118 20.0
2016-Sep-30 02:42 118 20.0
2016-Sep-30 02:37 118 20.0
2016-Sep-30 02:32 118 20.0
2016-Sep-30 02:27 118 0 gusting 3 20.6
2016-Sep-30 02:22 118 0 gusting 1 20.6
2016-Sep-30 02:17 118 20.6
2016-Sep-30 02:12 118 20.6
2016-Sep-30 02:07 118 20.6
2016-Sep-30 02:02 118 20.6
2016-Sep-30 01:57 118 20.6
2016-Sep-30 01:52 118 20.6
2016-Sep-30 01:47 118 20.6
2016-Sep-30 01:42 118 21.1
2016-Sep-30 01:37 118 21.1
2016-Sep-30 01:32 118 21.1
2016-Sep-30 01:27 118 21.1
2016-Sep-30 01:22 118 21.1
2016-Sep-30 01:17 118 21.1
2016-Sep-30 01:12 118 21.1
2016-Sep-30 01:07 118 21.1
2016-Sep-30 01:02 118 21.1
2016-Sep-30 00:57 118 21.1
2016-Sep-30 00:52 118 21.7
2016-Sep-30 00:47 118 0 gusting 3 21.7
2016-Sep-30 00:42 118 0 gusting 3 21.7
2016-Sep-30 00:37 118 0 gusting 3 21.7
2016-Sep-30 00:32 118 0 gusting 4 21.7
2016-Sep-30 00:27 118 0 gusting 4 21.7
2016-Sep-30 00:22 118 0 gusting 4 22.2
2016-Sep-30 00:17 118 0 gusting 0 22.2
2016-Sep-30 00:12 118 22.8
2016-Sep-30 00:07 118 22.8
2016-Sep-30 00:02 118 23.3
2016-Sep-29 23:57 118 23.3
2016-Sep-29 23:52 118 23.3
2016-Sep-29 23:47 118 0 gusting 3 23.3
2016-Sep-29 23:42 118 0 gusting 1 23.3
2016-Sep-29 23:37 118 23.3
2016-Sep-29 23:32 118 23.3
2016-Sep-29 23:27 118 23.3
2016-Sep-29 23:22 118 23.3
2016-Sep-29 23:17 118 23.9
2016-Sep-29 23:12 118 23.9
2016-Sep-29 23:07 118 23.9
2016-Sep-29 23:02 118 24.4
2016-Sep-29 22:57 118 24.4
2016-Sep-29 22:52 118 24.4
2016-Sep-29 22:47 118 24.4
2016-Sep-29 22:42 118 24.4
2016-Sep-29 22:37 118 24.4
2016-Sep-29 22:32 118 0 gusting 10 25.0
2016-Sep-29 22:27 118 1 gusting 10 25.0
2016-Sep-29 22:22 118 3 gusting 10 25.0
2016-Sep-29 22:17 118 3 gusting 10 25.0
2016-Sep-29 22:12 113 2 gusting 6 25.0
2016-Sep-29 22:07 090 2 gusting 6 25.0
2016-Sep-29 22:02 090 2 gusting 6 25.0
2016-Sep-29 21:57 103 2 gusting 6 25.0
2016-Sep-29 21:52 103 1 gusting 5 25.0
2016-Sep-29 21:47 111 1 gusting 5 25.6
2016-Sep-29 21:42 111 2 gusting 4 25.6
2016-Sep-29 21:37 111 1 gusting 4 25.6
2016-Sep-29 21:32 128 0 gusting 5 25.6
2016-Sep-29 21:27 130 0 gusting 5 25.6
2016-Sep-29 21:22 130 0 gusting 11 26.1
2016-Sep-29 21:17 130 0 gusting 11 26.1
2016-Sep-29 21:12 130 2 gusting 9 26.1
2016-Sep-29 21:07 130 4 gusting 9 26.1
2016-Sep-29 21:02 163 5 gusting 10 26.1
2016-Sep-29 20:57 146 5 gusting 10 26.1
2016-Sep-29 20:52 145 4 gusting 10 26.1
2016-Sep-29 20:47 153 5 gusting 10 26.7
2016-Sep-29 20:42 133 5 gusting 10 26.7
2016-Sep-29 20:37 127 4 gusting 10 26.7
2016-Sep-29 20:32 157 6 gusting 14 26.7
2016-Sep-29 20:27 157 6 gusting 14 26.7
2016-Sep-29 20:22 153 6 gusting 14 26.7
2016-Sep-29 20:17 134 6 gusting 14 26.7
2016-Sep-29 20:12 146 2 gusting 5 26.7
2016-Sep-29 20:07 162 1 gusting 5 26.7
2016-Sep-29 20:02 180 1 gusting 5 27.2
2016-Sep-29 19:57 142 0 gusting 5 27.2
2016-Sep-29 19:52 143 1 gusting 6 27.2
2016-Sep-29 19:47 142 2 gusting 6 27.2
2016-Sep-29 19:42 143 2 gusting 9 27.8
2016-Sep-29 19:37 117 3 gusting 9 27.8
2016-Sep-29 19:32 139 5 gusting 12 27.8
2016-Sep-29 19:27 139 4 gusting 12 27.8
2016-Sep-29 19:22 128 5 gusting 12 27.8
2016-Sep-29 19:17 137 5 gusting 12 27.8
2016-Sep-29 19:12 146 5 gusting 14 27.8
2016-Sep-29 19:07 140 5 gusting 14 28.3
2016-Sep-29 19:02 118 6 gusting 12 28.3
2016-Sep-29 18:57 127 6 gusting 12 28.3
2016-Sep-29 18:52 143 6 gusting 13 28.3
2016-Sep-29 18:47 140 6 gusting 13 28.3
2016-Sep-29 18:42 148 6 gusting 14 28.3
2016-Sep-29 18:37 134 6 gusting 14 28.9
2016-Sep-29 18:32 142 6 gusting 14 28.9
2016-Sep-29 18:27 140 6 gusting 14 28.9
2016-Sep-29 18:22 150 7 gusting 19 28.9
2016-Sep-29 18:17 136 8 gusting 19 28.9
2016-Sep-29 18:12 144 7 gusting 13 29.4
2016-Sep-29 18:07 135 6 gusting 13 29.4
2016-Sep-29 18:02 121 6 gusting 10 29.4
2016-Sep-29 17:57 125 6 gusting 10 29.4
2016-Sep-29 17:52 106 5 gusting 10 29.4
2016-Sep-29 17:47 117 5 gusting 10 29.4
2016-Sep-29 17:42 111 6 gusting 10 29.4
2016-Sep-29 17:37 118 6 gusting 10 30.0
2016-Sep-29 17:32 105 5 gusting 13 30.0
2016-Sep-29 17:27 144 6 gusting 13 30.0
2016-Sep-29 17:22 114 5 gusting 11 30.0
2016-Sep-29 17:17 130 6 gusting 11 30.6
2016-Sep-29 17:12 128 5 gusting 9 30.6
2016-Sep-29 17:07 193 4 gusting 9 30.6
2016-Sep-29 17:02 117 5 gusting 10 30.6
2016-Sep-29 16:57 126 5 gusting 10 30.6
2016-Sep-29 16:52 082 4 gusting 10 30.6
2016-Sep-29 16:47 079 4 gusting 10 30.6
2016-Sep-29 16:42 080 3 gusting 14 30.6
2016-Sep-29 16:37 104 2 gusting 14 30.6
2016-Sep-29 16:32 107 4 gusting 14 30.6
2016-Sep-29 16:27 069 5 gusting 14 30.6
2016-Sep-29 16:22 117 4 gusting 11 30.6
2016-Sep-29 16:17 136 5 gusting 11 30.6
2016-Sep-29 16:12 086 6 gusting 13 30.6
2016-Sep-29 16:07 083 6 gusting 13 30.6
2016-Sep-29 16:02 070 6 gusting 17 30.6
2016-Sep-29 15:57 079 7 gusting 17 30.0
2016-Sep-29 15:52 138 9 gusting 17 30.0
2016-Sep-29 15:47 100 8 gusting 17 30.6
2016-Sep-29 15:42 092 6 gusting 12 30.6
2016-Sep-29 15:37 070 6 gusting 12 30.0
2016-Sep-29 15:32 102 6 gusting 13 30.0
2016-Sep-29 15:27 103 6 gusting 13 30.0
2016-Sep-29 15:22 090 7 gusting 13 30.6
2016-Sep-29 15:17 101 5 gusting 13 30.6
2016-Sep-29 15:12 093 3 gusting 16 30.6
2016-Sep-29 15:07 087 5 gusting 16 30.0
2016-Sep-29 15:02 103 7 gusting 16 30.0
2016-Sep-29 14:57 084 9 gusting 16 30.0
2016-Sep-29 14:52 067 6 gusting 13 30.0
2016-Sep-29 14:47 065 6 gusting 13 30.0
2016-Sep-29 14:42 106 7 gusting 13 30.0
2016-Sep-29 14:37 122 7 gusting 13 30.0
2016-Sep-29 14:32 145 6 gusting 15 30.0
2016-Sep-29 14:27 027 5 gusting 15 29.4
2016-Sep-29 14:22 059 6 gusting 18 29.4
2016-Sep-29 14:17 107 7 gusting 18 29.4
2016-Sep-29 14:12 065 9 gusting 12 29.4
2016-Sep-29 14:07 096 7 gusting 12 29.4
2016-Sep-29 14:02 088 4 gusting 15 29.4
2016-Sep-29 13:57 095 6 gusting 15 29.4
2016-Sep-29 13:52 084 8 gusting 15 29.4
2016-Sep-29 13:47 058 6 gusting 15 29.4
2016-Sep-29 13:42 057 5 gusting 12 29.4
2016-Sep-29 13:37 067 5 gusting 12 29.4
2016-Sep-29 13:32 094 5 gusting 12 29.4
2016-Sep-29 13:27 068 6 gusting 12 29.4
2016-Sep-29 13:22 026 6 gusting 16 29.4
2016-Sep-29 13:17 057 6 gusting 16 28.9
2016-Sep-29 13:12 090 6 gusting 14 28.9
2016-Sep-29 13:07 070 7 gusting 14 28.9
2016-Sep-29 13:02 040 9 gusting 13 28.9
2016-Sep-29 12:57 090 7 gusting 13 28.9
2016-Sep-29 12:52 105 6 gusting 13 28.9
2016-Sep-29 12:47 058 6 gusting 13 28.3
2016-Sep-29 12:42 034 6 gusting 15 28.3
2016-Sep-29 12:37 080 6 gusting 15 28.9
2016-Sep-29 12:32 082 6 gusting 14 28.3
2016-Sep-29 12:27 074 7 gusting 14 28.3
2016-Sep-29 12:22 070 7 gusting 14 28.3
2016-Sep-29 12:17 070 7 gusting 15 28.3
2016-Sep-29 12:12 069 7 gusting 15 28.3
2016-Sep-29 12:07 044 6 gusting 15 28.3
2016-Sep-29 12:02 090 7 gusting 14 27.8
2016-Sep-29 11:57 053 7 gusting 14 27.8
2016-Sep-29 11:52 083 8 gusting 14 27.8
2016-Sep-29 11:47 074 8 gusting 14 27.8
2016-Sep-29 11:42 042 7 gusting 15 27.8
2016-Sep-29 11:37 092 7 gusting 15 27.8
2016-Sep-29 11:32 049 6 gusting 14 27.8
2016-Sep-29 11:27 066 7 gusting 14 27.2
2016-Sep-29 11:22 060 7 gusting 12 27.2
2016-Sep-29 11:17 076 6 gusting 12 26.7
2016-Sep-29 11:12 038 7 gusting 13 26.7
2016-Sep-29 11:07 064 7 gusting 13 26.7
2016-Sep-29 11:02 071 6 gusting 13 26.7
2016-Sep-29 10:57 053 7 gusting 13 26.7
2016-Sep-29 10:52 070 7 gusting 16 26.7
2016-Sep-29 10:47 085 6 gusting 16 26.7
2016-Sep-29 10:42 047 6 gusting 16 26.7
2016-Sep-29 10:37 088 8 gusting 16 26.1
2016-Sep-29 10:32 108 8 gusting 14 26.1
2016-Sep-29 10:27 092 8 gusting 14 26.1
2016-Sep-29 10:22 076 7 gusting 13 26.1
2016-Sep-29 10:17 059 7 gusting 13 25.6
2016-Sep-29 10:12 059 8 gusting 13 25.6
2016-Sep-29 10:07 045 7 gusting 13 25.6
2016-Sep-29 10:02 055 8 gusting 13 25.0
2016-Sep-29 09:57 066 8 gusting 13 25.0
2016-Sep-29 09:52 082 7 gusting 14 24.4
2016-Sep-29 09:47 056 8 gusting 14 24.4
2016-Sep-29 09:42 067 7 gusting 13 24.4
2016-Sep-29 09:37 049 6 gusting 13 24.4
2016-Sep-29 09:32 101 7 gusting 16 23.9
2016-Sep-29 09:27 031 7 gusting 16 23.9
2016-Sep-29 09:22 076 8 gusting 12 23.3
2016-Sep-29 09:17 053 7 gusting 12 23.3
2016-Sep-29 09:12 067 7 gusting 14 23.3
2016-Sep-29 09:07 069 8 gusting 14 23.3
2016-Sep-29 09:02 061 8 gusting 14 22.8
2016-Sep-29 08:57 063 8 gusting 14 22.8
2016-Sep-29 08:52 063 8 gusting 12 22.8
2016-Sep-29 08:47 051 7 gusting 12 22.2
2016-Sep-29 08:42 088 6 gusting 11 22.2
2016-Sep-29 08:37 058 5 gusting 11 22.2
2016-Sep-29 08:32 067 3 gusting 6 21.7
2016-Sep-29 08:27 042 3 gusting 6 21.7
2016-Sep-29 08:22 046 3 gusting 8 21.1
2016-Sep-29 08:17 093 4 gusting 8 21.1
2016-Sep-29 08:12 074 4 gusting 6 20.6
2016-Sep-29 08:07 066 3 gusting 6 20.6
2016-Sep-29 08:02 090 3 gusting 5 20.6
2016-Sep-29 07:57 086 2 gusting 5 20.6
2016-Sep-29 07:52 096 2 gusting 6 20.0
2016-Sep-29 07:47 097 3 gusting 6 20.0
2016-Sep-29 07:42 067 3 gusting 6 20.0
2016-Sep-29 07:37 083 1 gusting 6 20.0
2016-Sep-29 07:32 050 0 gusting 3 20.0
2016-Sep-29 07:27 026 0 gusting 3 20.0
2016-Sep-29 07:22 026 19.4
2016-Sep-29 07:17 011 0 gusting 2 19.4
2016-Sep-29 07:12 011 0 gusting 3 19.4
2016-Sep-29 07:07 011 0 gusting 3 18.9
2016-Sep-29 07:02 011 1 gusting 4 18.9
2016-Sep-29 06:57 18.3
2016-Sep-29 06:52 005 1 gusting 4 18.3
2016-Sep-29 06:47 005 2 gusting 4 18.3
2016-Sep-29 06:42 024 2 gusting 4 18.3
2016-Sep-29 06:37 18.3
2016-Sep-29 06:32 323 0 gusting 3 18.3
2016-Sep-29 06:27 311 0 gusting 3 18.3
2016-Sep-29 06:22 311 1 gusting 3 18.3
2016-Sep-29 06:17 312 1 gusting 3 18.3
2016-Sep-29 06:12 069 0 gusting 2 18.3
2016-Sep-29 06:07 069 18.9
2016-Sep-29 06:02 069 0 gusting 4 18.9
2016-Sep-29 05:57 069 1 gusting 4 18.9
2016-Sep-29 05:52 069 2 gusting 5 18.9
2016-Sep-29 05:47 069 2 gusting 5 18.9
2016-Sep-29 05:42 071 2 gusting 5 18.9
2016-Sep-29 05:37 060 2 gusting 5 18.9
2016-Sep-29 05:32 058 2 gusting 4 19.4
2016-Sep-29 05:27 074 2 gusting 4 19.4
2016-Sep-29 05:22 075 1 gusting 4 18.9
2016-Sep-29 05:17 071 0 gusting 4 18.9
2016-Sep-29 05:12 071 1 gusting 3 18.9
2016-Sep-29 05:07 059 1 gusting 3 19.4
2016-Sep-29 05:02 059 0 gusting 2 19.4
2016-Sep-29 04:57 059 0 gusting 2 19.4
2016-Sep-29 04:52 059 19.4
2016-Sep-29 04:47 059 19.4
2016-Sep-29 04:42 059 19.4
2016-Sep-29 04:37 059 19.4
2016-Sep-29 04:32 059 19.4
2016-Sep-29 04:27 059 19.4
2016-Sep-29 04:22 059 19.4
2016-Sep-29 04:17 059 19.4
2016-Sep-29 04:12 059 19.4
2016-Sep-29 04:07 059 19.4
2016-Sep-29 04:02 059 19.4
2016-Sep-29 03:57 059 0 gusting 3 19.4
2016-Sep-29 03:52 059 1 gusting 3 19.4
2016-Sep-29 03:47 059 1 gusting 3 20.0
2016-Sep-29 03:42 059 20.0
2016-Sep-29 03:37 059 0 gusting 3 20.0
2016-Sep-29 03:32 059 0 gusting 0 20.0
2016-Sep-29 03:27 059 20.0
2016-Sep-29 03:22 059 20.0
2016-Sep-29 03:17 059 20.0
2016-Sep-29 03:12 059 20.0
2016-Sep-29 03:07 059 0 gusting 4 20.0
2016-Sep-29 03:02 059 1 gusting 4 20.0
2016-Sep-29 02:57 076 2 gusting 4 20.0
2016-Sep-29 02:52 066 2 gusting 5 20.0
2016-Sep-29 02:47 058 2 gusting 5 20.0
2016-Sep-29 02:42 053 2 gusting 4 20.0
2016-Sep-29 02:37 061 2 gusting 4 20.0
2016-Sep-29 02:32 067 1 gusting 3 20.0
2016-Sep-29 02:27 050 1 gusting 3 20.0
2016-Sep-29 02:22 050 1 gusting 5 20.0
2016-Sep-29 02:17 050 2 gusting 5 20.6
2016-Sep-29 02:12 052 3 gusting 4 20.6
2016-Sep-29 02:07 049 3 gusting 4 20.6
2016-Sep-29 02:02 060 2 gusting 4 20.6
2016-Sep-29 01:57 066 2 gusting 4 20.6
2016-Sep-29 01:52 037 2 gusting 5 20.6
2016-Sep-29 01:47 062 2 gusting 5 20.6
2016-Sep-29 01:42 051 2 gusting 4 20.6
2016-Sep-29 01:37 054 2 gusting 4 20.6
2016-Sep-29 01:32 055 2 gusting 3 20.6
2016-Sep-29 01:27 055 2 gusting 3 20.6
2016-Sep-29 01:22 056 2 gusting 4 20.6
2016-Sep-29 01:17 059 2 gusting 4 20.6
2016-Sep-29 01:12 054 2 gusting 3 20.6
2016-Sep-29 01:07 062 1 gusting 3 20.6
2016-Sep-29 01:02 062 0 gusting 2 21.1
2016-Sep-29 00:57 062 0 gusting 2 21.1
2016-Sep-29 00:52 062 0 gusting 1 21.1
2016-Sep-29 00:47 062 21.1
2016-Sep-29 00:42 062 21.7
2016-Sep-29 00:37 062 21.7
2016-Sep-29 00:32 062 21.7
2016-Sep-29 00:27 062 21.7
2016-Sep-29 00:22 062 21.7
2016-Sep-29 00:17 062 21.7
2016-Sep-29 00:12 062 0 gusting 2 21.7
2016-Sep-29 00:07 062 0 gusting 2 21.7
2016-Sep-29 00:02 062 0 gusting 0 22.2
2016-Sep-28 23:57 062 22.2
2016-Sep-28 23:52 062 22.2
2016-Sep-28 23:47 062 22.2
2016-Sep-28 23:42 062 22.2
2016-Sep-28 23:37 062 22.2
2016-Sep-28 23:32 062 22.2
2016-Sep-28 23:27 062 22.8
2016-Sep-28 23:22 062 22.8
2016-Sep-28 23:17 062 22.8
2016-Sep-28 23:12 062 0 gusting 2 22.8
2016-Sep-28 23:07 062 22.8
2016-Sep-28 23:02 062 0 gusting 3 22.8
2016-Sep-28 22:57 062 0 gusting 3 23.3
2016-Sep-28 22:52 062 0 gusting 5 23.3
2016-Sep-28 22:47 062 0 gusting 5 23.3
2016-Sep-28 22:42 062 1 gusting 5 23.9
2016-Sep-28 22:37 062 2 gusting 5 23.9
2016-Sep-28 22:32 063 2 gusting 5 24.4
2016-Sep-28 22:27 046 1 gusting 5 24.4
2016-Sep-28 22:22 121 1 gusting 5 25.0
2016-Sep-28 22:17 121 0 gusting 5 25.0
2016-Sep-28 22:12 121 1 gusting 5 25.0
2016-Sep-28 22:07 121 2 gusting 5 25.0
2016-Sep-28 22:02 122 2 gusting 6 25.0
2016-Sep-28 21:57 105 2 gusting 6 25.0
2016-Sep-28 21:52 105 3 gusting 6 25.0
2016-Sep-28 21:47 100 4 gusting 6 25.0
2016-Sep-28 21:42 101 4 gusting 7 25.0
2016-Sep-28 21:37 110 4 gusting 7 25.0
2016-Sep-28 21:32 108 3 gusting 6 25.0
2016-Sep-28 21:27 103 3 gusting 6 25.6
2016-Sep-28 21:22 098 2 gusting 1 25.6
2016-Sep-28 21:17 100 0 gusting 1 25.6
2016-Sep-28 21:12 315 25.6
2016-Sep-28 21:07 315 25.6
2016-Sep-28 21:02 315 25.6
2016-Sep-28 20:57 315 0 gusting 3 26.1
2016-Sep-28 20:52 315 0 gusting 6 26.1
2016-Sep-28 20:47 315 0 gusting 6 26.7
2016-Sep-28 20:42 158 1 gusting 9 26.7
2016-Sep-28 20:37 158 2 gusting 9 26.7
2016-Sep-28 20:32 137 4 gusting 9 26.7
2016-Sep-28 20:27 153 4 gusting 9 26.7
2016-Sep-28 20:22 150 2 gusting 8 26.7
2016-Sep-28 20:17 145 3 gusting 8 26.7
2016-Sep-28 20:12 115 3 gusting 12 27.2
2016-Sep-28 20:07 135 4 gusting 12 27.2
2016-Sep-28 20:02 140 6 gusting 12 27.2
2016-Sep-28 19:57 142 5 gusting 12 27.2
2016-Sep-28 19:52 132 4 gusting 7 27.2
2016-Sep-28 19:47 140 2 gusting 7 27.8
2016-Sep-28 19:42 157 1 gusting 12 27.8
2016-Sep-28 19:37 127 4 gusting 12 27.8
2016-Sep-28 19:32 129 6 gusting 11 27.8
2016-Sep-28 19:27 126 6 gusting 11 27.8
2016-Sep-28 19:22 121 6 gusting 12 27.8
2016-Sep-28 19:17 157 6 gusting 12 27.8
2016-Sep-28 19:12 139 6 gusting 13 27.8
2016-Sep-28 19:07 148 6 gusting 13 28.3
2016-Sep-28 19:02 140 5 gusting 13 28.3
2016-Sep-28 18:57 129 6 gusting 13 28.3
2016-Sep-28 18:52 131 6 gusting 11 28.3
2016-Sep-28 18:47 132 6 gusting 11 28.3
2016-Sep-28 18:42 138 6 gusting 11 28.9
2016-Sep-28 18:37 153 6 gusting 11 28.9
2016-Sep-28 18:32 157 5 gusting 9 28.9
2016-Sep-28 18:27 150 5 gusting 9 28.9
2016-Sep-28 18:22 147 5 gusting 9 29.4
2016-Sep-28 18:17 122 5 gusting 9 29.4
2016-Sep-28 18:12 160 5 gusting 11 29.4
2016-Sep-28 18:07 136 6 gusting 11 29.4
2016-Sep-28 18:02 136 6 gusting 11 29.4
2016-Sep-28 17:57 151 6 gusting 11 29.4
2016-Sep-28 17:52 135 6 gusting 14 30.0
2016-Sep-28 17:47 163 6 gusting 14 30.0
2016-Sep-28 17:42 134 7 gusting 14 30.0
2016-Sep-28 17:37 132 9 gusting 14 30.0
2016-Sep-28 17:32 139 8 gusting 14 30.0
2016-Sep-28 17:27 145 7 gusting 14 30.6
2016-Sep-28 17:22 113 7 gusting 17 30.6
2016-Sep-28 17:17 132 7 gusting 17 30.6
2016-Sep-28 17:12 133 8 gusting 10 30.6
2016-Sep-28 17:07 118 6 gusting 10 31.1
2016-Sep-28 17:02 115 4 gusting 6 31.1
2016-Sep-28 16:57 057 1 gusting 6 31.1
2016-Sep-28 16:52 062 2 gusting 10 31.7
2016-Sep-28 16:47 061 4 gusting 10 31.1
2016-Sep-28 16:42 059 4 gusting 9 31.1
2016-Sep-28 16:37 060 4 gusting 9 31.1
2016-Sep-28 16:32 044 4 gusting 7 31.7
2016-Sep-28 16:27 091 4 gusting 7 31.7
2016-Sep-28 16:22 090 3 gusting 6 31.7
2016-Sep-28 16:17 083 1 gusting 6 31.7
2016-Sep-28 16:12 065 2 gusting 8 31.1
2016-Sep-28 16:07 074 2 gusting 8 31.1
2016-Sep-28 16:02 093 3 gusting 11 31.1
2016-Sep-28 15:57 059 3 gusting 11 31.1
2016-Sep-28 15:52 085 5 gusting 11 31.1
2016-Sep-28 15:47 069 5 gusting 11 31.7
2016-Sep-28 15:42 076 5 gusting 13 31.7
2016-Sep-28 15:37 088 6 gusting 13 31.7
2016-Sep-28 15:32 107 6 gusting 9 31.7
2016-Sep-28 15:27 116 4 gusting 9 31.7
2016-Sep-28 15:22 068 4 gusting 12 31.7
2016-Sep-28 15:17 123 5 gusting 12 31.1
2016-Sep-28 15:12 120 6 gusting 12 31.1
2016-Sep-28 15:07 121 6 gusting 12 31.1
2016-Sep-28 15:02 070 6 gusting 13 31.1